sat.trackr.live / text

‹ back to catalog

STARLINK-11292 [DTC]

NORAD 61203 · 2024-171D

PAYLOAD ACTIVE UNKNOWN

§ Identity

Operator
Country
US
Launch date
2024-09-20
Launch site
AFWTR
Launch vehicle
Mass (kg)
RCS (m²)

Purposes: comms

External: N2YO · Heavens-Above · Gunter

§ Orbital elements

Epoch: 2026-09-19T14:17:57.981408Z

Period
91.74 min
Inclination
53.1598°
Eccentricity
0.0001155
Mean motion
15.69710935 rev/d
Perigee alt
358.9 km
Apogee alt
360.5 km
Semi-major
6,737.9 km
B*
8.3001e-6
RAAN
300.3941°
Arg perigee
79.4715°
Mean anomaly
280.6433°
Rev number
11,485

§ Raw data

STARLINK-11292 [DTC]1 61203U 24171D   26262.59580997  .00000417  00000+0  83001-5 0  99952 61203  53.1598 300.3941 0001155  79.4715 280.6433 15.69710935114851

JSON: /api/v1/satellites/61203 · /tle

For live sub-satellite position, see the globe view (requires WebGL).

§ Visibility from observer

Set your observer location to see the next 7 days of passes ≥ 10°. The values pass through the URL so the page stays shareable.

No JS? Fill the form by hand. The geolocation button needs JavaScript.